Regional Weather Roundup
Issued by NWS

Home | Current Version | Previous Version | Graphics & Text | Print | Product List | Glossary On
Versions: 1 2 3 4 5 6 7 8 9 10 11 12 13 14 15 16 17 18 19 20 21 22 23 24 25 26 27 28 29 30 31 32 33 34 35 36 37 38 39 40 41 42 43 44 45 46 47 48 49 50
000
ASUS43 KIND 191759
RWRIN

WEATHER ROUNDUP FOR INDIANA
NATIONAL WEATHER SERVICE INDIANAPOLIS IN
100 PM EST THU JAN 19 2017

NOTE: "FAIR" INDICATES FEW OR NO CLOUDS BELOW 12,000 FEET WITH NO
SIGNIFICANT WEATHER AND/OR OBSTRUCTIONS TO VISIBILITY.

* - STATION DOES NOT REPORT WEATHER SUCH AS PRECIPITATION OR FOG.

+ - STATION NOT QUALITY CONTROLLED BY THE NATIONAL WEATHER SERVICE.
    USE DATA WITH CAUTION...ESPECIALLY DEWPOINT AND RELATIVE
    HUMIDITY OBSERVATIONS.

INZ001>003-010>013-019-020-191900-
NORTHWEST INDIANA

CITY           SKY/WX    TMP DP  RH WIND       PRES   REMARKS
GARY /AIRPORT/ CLOUDY    41  36  81 S5        29.96F FOG
MONTICELLO +   CLOUDY    39  36  87 SE6       29.98R
6HR MIN TEMP:  34; 6HR MAX TEMP:  40;


$$

LMZ046-743>745-191900-
SOUTHERN LAKE MICHIGAN

STATION/POSITION TIME  TEMP    WIND        PRES    WAVE
                       AIR SEA DIR/SP/G            HT
                 (UTC) (F)     (DEG/KT/KT) (MB)    (FT)
BURNS HARBOR     1740   39     110/  7/ 10 1015.2F

$$

INZ004-005-014>016-021>024-191900-
NORTH CENTRAL INDIANA

CITY           SKY/WX    TMP DP  RH WIND       PRES   REMARKS
ELKHART        CLOUDY    39  36  87 E6        29.97F FOG
GOSHEN         CLOUDY    39  34  82 SE7       29.97F HAZE
6HR MIN TEMP:  34; 6HR MAX TEMP:  39;

SOUTH BEND     CLOUDY    37  35  92 E6        29.98F FOG
6HR MIN TEMP:  33; 6HR MAX TEMP:  37;


$$

INZ006>009-017-018-025>027-191900-
NORTHEAST INDIANA

CITY           SKY/WX    TMP DP  RH WIND       PRES   REMARKS
ANGOLA *+      CLOUDY    36  25  64 S7        29.97F
FORT WAYNE     CLOUDY    41  34  76 SE8       30.00F HAZE
6HR MIN TEMP:  35; 6HR MAX TEMP:  41;

KENDALLVILLE + CLOUDY    38  35  91 SE9       29.98F FOG

$$

INZ028-029-035-036-043>045-051>053-191900-
WEST CENTRAL INDIANA

CITY           SKY/WX    TMP DP  RH WIND       PRES   REMARKS
CRAWFORDSVL +  CLOUDY    41  41  99 SE6       29.94F
6HR MIN TEMP:  33; 6HR MAX TEMP:  41;

LAFAYETTE      CLOUDY    43  38  82 SE7       29.97R
6HR MIN TEMP:  32; 6HR MAX TEMP:  43;

TERRE HAUTE    CLOUDY    45  39  79 SE7       29.94F
6HR MIN TEMP:  37; 6HR MAX TEMP:  45;


$$

INZ030>032-037>040-046>048-054>057-064-065-191900-
CENTRAL INDIANA

CITY           SKY/WX    TMP DP  RH WIND       PRES   REMARKS
ANDERSON       MOSUNNY   41  37  87 SE6       29.99F
COLUMBUS       CLOUDY    45  41  87 SE6       30.02S
INDIANAPOLIS   CLOUDY    44  39  82 SE9       29.95F
6HR MIN TEMP:  34; 6HR MAX TEMP:  44;

-EAGLE CREEK   CLOUDY    45  38  76 SE9       29.96F
6HR MIN TEMP:  35; 6HR MAX TEMP:  45;

KOKOMO +       PTSUNNY   39  37  92 SE10      30.00S FOG
6HR MIN TEMP:  34; 6HR MAX TEMP:  39;

MT COMFORT *+  CLOUDY    43  39  87 SE7       29.99S
SHELBYVILLE    CLOUDY    46  39  76 SE8       29.98F
6HR MIN TEMP:  36; 6HR MAX TEMP:  46;


$$

INZ033-034-041-042-049-050-058-059-191900-
EAST CENTRAL INDIANA

CITY           SKY/WX    TMP DP  RH WIND       PRES   REMARKS
MUNCIE         CLOUDY    43  37  79 SE6       29.99F
6HR MIN TEMP:  37; 6HR MAX TEMP:  43;


$$

INZ060-061-067>069-081>083-085>088-191900-
SOUTHWEST INDIANA

CITY           SKY/WX    TMP DP  RH WIND       PRES   REMARKS
EVANSVILLE     CLOUDY    48  42  80 E7        29.89F
6HR MIN TEMP:  42; 6HR MAX TEMP:  48; 6HR PCP:  0.01;

HUNTINGBURG *+ CLOUDY    50  42  74 E7        29.91F
6HR MIN TEMP:  41; 6HR MAX TEMP:  50; 6HR PCP: TRACE;


$$

INZ062-063-066-070>080-084-089>092-191900-
SOUTH CENTRAL AND SOUTHEAST INDIANA

CITY           SKY/WX    TMP DP  RH WIND       PRES   REMARKS
BLOOMINGTON    CLOUDY    46  38  73 E8        29.94F
6HR MIN TEMP:  37; 6HR MAX TEMP:  46;

MADISON *+     CLOUDY    46  39  76 E5        30.00F
SEYMOUR +      CLOUDY    48  41  76 E8        29.96F

$$




USA.gov is the U.S. government's official web portal to all federal, state and local government web resources and services.